Home > Weather > Waren (Müritz) > Past weeks

Flag for Germany Weather for the Past 2 Weeks in Waren (Müritz), Mecklenburg-Western Pomerania, Germany

Now
63 °F

Passing clouds.


Feels Like: 63 °F
Forecast: 51 / 71 °F
Wind: 13 mph from East

Location: Laage

Current Time: May 6, 2016 at 9:45:11 PM

Latest Report: May 6, 2016 at 8:20 PM


Visibility: N/A

Pressure: 30.07 "Hg

Humidity: 56%

Dew Point: 46 °F

Location of Waren (Müritz)Location

Historic Weather in Waren (Müritz) — Graph

°F

Waren (Müritz) Temperature Yesterday

Maximum temperature yesterday: 63 °F (at 2:20 PM)
Minimum temperature yesterday: 36 °F (at 4:20 AM)
Average temperature yesterday: 51 °F

High & Low Weather Summary for the Past Weeks

 TemperatureHumidityPressure
High72 °F (May 6, 4:20 PM)100% (Apr 24, 1:20 AM)30.42 "Hg (Apr 24, 1:20 AM)
Low32 °F (Apr 25, 1:20 AM)27% (Apr 23, 6:20 PM)29.42 "Hg (Apr 26, 3:20 AM)
Average46 °F72%29.96 "Hg
* Reported Apr 21 8:20 PM — May 6 8:20 PM, Waren (Müritz), Weather by CustomWeather, © 2016

Note: Actual official high and low records may vary slightly from our data, if they occured in-between our weather recording intervals... More about our weather records

Advertising

Waren (Müritz) Weather History for the Previous 24 Hours

Scroll right to see more
 ConditionsComfort  
Time TempWeatherWind HumidityBarometerVisibility
8:20 PM
Fri, May 6
63 °FPassing clouds.13 mph56%30.07 "HgN/A
7:20 PM68 °FPassing clouds.16 mph46%30.04 "HgN/A
6:20 PM72 °FPassing clouds.14 mph36%30.07 "HgN/A
5:20 PM72 °FPassing clouds.12 mph36%30.07 "HgN/A
4:20 PM72 °FPassing clouds.10 mph38%30.09 "HgN/A
3:20 PM70 °FPassing clouds.10 mph40%30.09 "HgN/A
2:20 PM70 °FPassing clouds.13 mph40%30.12 "HgN/A
1:20 PM70 °FPassing clouds.13 mph43%30.15 "HgN/A
12:20 PM68 °FScattered clouds.10 mph46%30.15 "HgN/A
11:20 AM66 °FScattered clouds.9 mph49%30.18 "HgN/A
10:20 AM63 °FScattered clouds.8 mph59%30.18 "HgN/A
9:20 AM57 °FScattered clouds.6 mph67%30.21 "HgN/A
8:20 AM52 °FScattered clouds.6 mph72%30.21 "HgN/A
7:20 AM46 °FScattered clouds.7 mph82%30.21 "HgN/A
6:20 AM43 °FPassing clouds.6 mph81%30.21 "HgN/A
5:20 AM43 °FPassing clouds.5 mph76%30.21 "HgN/A
4:20 AM43 °FPassing clouds.6 mph76%30.21 "HgN/A
3:20 AM45 °FQuite cool.6 mph71%30.24 "HgN/A
2:20 AM46 °FCool.6 mph66%30.24 "HgN/A
1:20 AM46 °FPassing clouds.6 mph66%30.24 "HgN/A
12:20 AM46 °FPassing clouds.7 mph71%30.27 "HgN/A
11:20 PM
Thu, May 5
48 °FCool.8 mph66%30.27 "HgN/A
10:20 PM50 °FPassing clouds.8 mph62%30.27 "HgN/A
9:20 PM52 °FPassing clouds.8 mph50%30.27 "HgN/A
Weather by CustomWeather, © 2016

See weather overviewHow to use our weather pages